DW6358 Weather Reports


time (UTC)temp
F
wind
direction
speed
knots
gust
knots
rain 1hr
in
rain 24hr
in
rain mn
in
humidity
%
barometer
mb
20260504024328 58 340 5.2 11.3 0.00 0.05 0.00 79 1021.9
20260504023826 58 333 8.7 11.3 0.00 0.05 0.00 78 1022.0
20260504022820 58 325 7.8 11.3 0.00 0.05 0.00 79 1021.9
20260504022319 58 341 8.7 11.3 0.00 0.05 0.00 78 1021.9
20260504021816 58 332 8.7 11.3 0.00 0.05 0.00 78 1021.9
20260504021314 58 337 9.6 11.3 0.00 0.05 0.00 78 1021.9
20260504020920 58 6 8.7 12.2 0.00 0.05 0.00 78 1021.9
20260504020332 58 354 8.7 10.4 0.00 0.05 0.00 77 1021.9
20260504015830 59 339 7.8 10.4 0.00 0.05 0.00 78 1021.9
20260504015329 59 335 7.8 10.4 0.00 0.05 0.00 79 1021.9
20260504014826 59 330 7.8 10.4 0.00 0.05 0.00 79 1022.0
20260504014319 59 333 7.8 10.4 0.00 0.05 0.00 77 1022.0
20260504013815 59 343 8.7 12.2 0.00 0.05 0.00 79 1022.0
20260504013315 59 329 9.6 13.0 0.00 0.05 0.00 78 1022.0
20260504012831 59 330 8.7 13.0 0.00 0.05 0.00 79 1022.0
20260504012348 59 333 8.7 12.2 0.00 0.05 0.00 79 1022.0
20260504011840 59 335 8.7 11.3 0.00 0.05 0.00 77 1022.2
20260504011317 59 20 8.7 12.2 0.00 0.05 0.00 77 1022.2
20260504010834 59 342 9.6 12.2 0.00 0.05 0.00 77 1022.2
20260504010332 59 332 7.8 11.3 0.00 0.05 0.00 77 1022.3
20260504005827 59 337 8.7 13.0 0.00 0.05 0.00 78 1022.3
20260504005327 59 322 9.6 13.0 0.00 0.05 0.00 76 1022.3
20260504004824 59 10 8.7 12.2 0.00 0.05 0.00 77 1022.3
20260504004321 59 316 8.7 13.9 0.00 0.05 0.00 78 1022.3
20260504003839 59 311 9.6 12.2 0.00 0.05 0.00 78 1022.3
20260504003330 59 341 8.7 13.0 0.00 0.05 0.00 77 1022.4
20260504002828 59 341 9.6 12.2 0.00 0.05 0.00 76 1022.4
20260504002327 59 340 8.7 12.2 0.00 0.05 0.00 79 1022.5
20260504001826 59 327 8.7 12.2 0.00 0.05 0.00 79 1022.5
20260504001324 59 324 9.6 13.0 0.00 0.05 0.00 78 1022.5
20260504000823 59 341 8.7 13.0 0.00 0.05 0.00 78 1022.5
20260504000321 59 340 10.4 13.0 0.00 0.05 0.00 78 1022.5
20260503235829 59 322 9.6 12.2 0.00 0.05 0.00 78 1022.5
20260503235326 59 14 10.4 13.0 0.00 0.05 0.00 79 1022.5
20260503234843 59 323 9.6 13.9 0.00 0.05 0.00 80 1022.5
20260503234320 59 328 11.3 14.8 0.00 0.05 0.00 80 1022.5
20260503233817 59 319 12.2 14.8 0.00 0.05 0.00 81 1022.5
20260503233317 59 339 10.4 12.2 0.00 0.05 0.00 80 1022.4
20260503232824 59 1 7.0 10.4 0.00 0.05 0.00 79 1022.5
20260503232321 59 329 7.0 10.4 0.00 0.05 0.00 79 1022.5
20260503231819 59 308 7.8 10.4 0.00 0.05 0.00 76 1022.5
20260503231316 59 323 7.8 11.3 0.00 0.05 0.00 78 1022.5
20260503230814 59 347 8.7 11.3 0.00 0.05 0.00 79 1022.5
20260503230355 59 333 8.7 10.4 0.00 0.05 0.00 78 1022.5
20260503225844 59 333 7.8 11.3 0.00 0.05 0.05 76 1022.5
20260503225323 59 329 8.7 11.3 0.00 0.05 0.05 77 1022.5
20260503224821 59 311 9.6 12.2 0.00 0.05 0.05 76 1022.5
20260503224319 59 326 10.4 12.2 0.00 0.05 0.05 76 1022.5
20260503223817 59 330 9.6 12.2 0.00 0.05 0.05 77 1022.6
20260503223401 59 327 10.4 13.0 0.00 0.05 0.05 76 1022.6
20260503222830 59 346 7.8 13.0 0.00 0.05 0.05 78 1022.6
20260503222347 59 311 8.7 11.3 0.00 0.05 0.05 80 1022.6
20260503221844 59 333 7.0 11.3 0.00 0.05 0.05 80 1022.6
20260503221321 59 340 7.0 11.3 0.00 0.05 0.05 80 1022.6
20260503220819 59 323 7.8 12.2 0.00 0.05 0.05 78 1022.5
20260503220337 59 335 8.7 12.2 0.00 0.05 0.05 78 1022.5
20260503215815 59 338 10.4 13.0 0.00 0.05 0.05 76 1022.5
20260503215334 59 323 9.6 13.0 0.00 0.05 0.05 77 1022.5
20260503214852 59 327 8.7 12.2 0.00 0.05 0.05 78 1022.4
20260503214328 59 326 9.6 13.9 0.00 0.05 0.05 79 1022.5
20260503213827 59 354 10.4 13.9 0.00 0.05 0.05 79 1022.4
20260503213346 59 330 7.8 13.0 0.00 0.05 0.05 79 1022.3
20260503212822 59 342 10.4 13.0 0.00 0.05 0.05 78 1022.3
20260503212319 59 354 8.7 13.0 0.00 0.05 0.05 78 1022.3
20260503211817 59 332 10.4 12.2 0.00 0.05 0.05 79 1022.2
20260503211315 59 358 8.7 12.2 0.00 0.05 0.05 79 1022.2
20260503210813 59 331 7.8 13.0 0.00 0.05 0.05 79 1022.2
20260503210350 59 320 10.4 13.9 0.00 0.05 0.05 80 1022.2
20260503205824 59 327 9.6 13.9 0.00 0.05 0.05 80 1022.2
20260503205322 60 328 7.8 13.0 0.00 0.05 0.05 80 1022.0
20260503204819 60 328 9.6 13.0 0.00 0.05 0.05 80 1022.0
20260503204316 60 350 8.7 12.2 0.00 0.05 0.05 80 1021.9
20260503203815 60 23 7.8 11.3 0.00 0.05 0.05 81 1021.9
20260503203335 60 340 8.7 11.3 0.00 0.05 0.05 80 1021.8
20260503202813 60 351 7.8 11.3 0.00 0.05 0.05 80 1021.7
20260503202331 60 349 7.8 11.3 0.00 0.05 0.05 80 1021.7
20260503201827 60 331 7.8 10.4 0.00 0.05 0.05 80 1021.6
20260503201325 60 347 7.0 11.3 0.00 0.05 0.05 81 1021.6
20260503200822 60 345 9.6 13.0 0.00 0.05 0.05 79 1021.5
20260503200320 60 329 9.6 12.2 0.00 0.05 0.05 80 1021.4
20260503195822 60 300 7.8 11.3 0.00 0.05 0.05 80 1021.4
20260503195322 60 314 7.8 11.3 0.00 0.05 0.05 80 1021.4
20260503194821 60 349 7.8 12.2 0.00 0.05 0.05 80 1021.3
20260503194318 60 344 7.8 12.2 0.00 0.05 0.05 78 1021.3
20260503193818 60 330 7.8 11.3 0.00 0.05 0.05 80 1021.2
20260503193318 60 319 7.0 10.4 0.00 0.05 0.05 79 1021.1
20260503192834 60 329 7.8 11.3 0.00 0.05 0.05 78 1021.1
20260503192331 60 332 7.0 11.3 0.00 0.05 0.05 77 1021.0
20260503191829 60 345 7.8 13.0 0.00 0.05 0.05 78 1021.0
20260503191327 60 337 10.4 13.0 0.00 0.05 0.05 77 1020.9
20260503190844 60 328 8.7 12.2 0.00 0.05 0.05 78 1020.9
20260503190323 61 335 8.7 12.2 0.00 0.05 0.05 78 1020.9
20260503185819 61 323 8.7 13.9 0.00 0.05 0.05 79 1020.8
20260503185317 61 335 9.6 13.9 0.00 0.05 0.05 78 1020.8
20260503184813 60 335 9.6 13.0 0.00 0.05 0.05 78 1020.8
20260503184332 61 328 8.7 12.2 0.00 0.05 0.05 78 1020.8
20260503183822 61 339 9.6 12.2 0.00 0.05 0.05 78 1020.8
20260503183322 61 329 10.4 13.0 0.00 0.05 0.05 78 1020.8
20260503182838 61 342 9.6 13.0 0.00 0.05 0.05 79 1020.7
20260503182312 61 326 9.6 13.9 0.00 0.05 0.05 78 1020.8
20260503181826 61 354 10.4 13.9 0.00 0.05 0.05 77 1020.8
20260503181324 61 319 11.3 13.0 0.00 0.05 0.05 77 1020.7
20260503180822 61 343 9.6 13.0 0.00 0.05 0.05 79 1020.7
20260503180322 61 343 9.6 13.0 0.00 0.05 0.05 78 1020.7
20260503175827 61 346 9.6 12.2 0.00 0.05 0.05 80 1020.7
20260503175412 61 335 9.6 12.2 0.00 0.05 0.05 80 1020.7
20260503174846 61 333 7.0 9.6 0.00 0.05 0.05 83 1020.7
20260503174344 61 338 7.8 9.6 0.00 0.05 0.05 83 1020.8
20260503173821 61 330 7.8 9.6 0.00 0.05 0.05 82 1020.9
20260503173320 61 332 7.0 10.4 0.00 0.05 0.05 83 1020.9
20260503172838 61 348 7.0 10.4 0.00 0.05 0.05 83 1020.9
20260503172335 61 346 7.8 10.4 0.00 0.05 0.05 83 1020.9
20260503171812 61 325 7.0 8.7 0.00 0.05 0.05 84 1020.9
20260503171350 61 338 5.2 8.7 0.00 0.05 0.05 85 1020.9
20260503170827 61 333 6.1 8.7 0.00 0.05 0.05 85 1021.0
20260503170346 61 338 5.2 9.6 0.00 0.05 0.05 85 1020.9
20260503150852 61 329 9.6 11.3 0.00 0.05 0.05 81 1021.1
20260503150329 61 318 8.7 10.4 0.00 0.05 0.05 80 1021.1
20260503131327 61 325 7.0 7.8 0.00 0.05 0.05 84 1021.3
20260503130845 61 322 6.1 7.8 0.00 0.05 0.05 84 1021.3
20260503130322 61 333 7.0 7.8 0.00 0.05 0.05 85 1021.3
20260503110817 62 303 1.7 5.2 0.01 0.05 0.05 85 1021.7
20260503110336 62 304 1.7 7.0 0.01 0.05 0.05 85 1021.6
20260503090322 61 261 0.9 7.0 0.00 0.16 0.00 84 1021.3
20260503081340 62 292 1.7 5.2 0.00 0.27 0.00 81 1021.2
20260503080817 62 280 1.7 4.3 0.00 0.27 0.00 81 1021.1
20260503080335 62 299 1.7 3.5 0.00 0.27 0.00 81 1021.1
20260503072813 61 269 0.9 5.2 0.00 0.36 0.00 84 1020.9
20260503072332 60 290 0.9 4.3 0.00 0.36 0.00 84 1021.0
20260503071828 60 295 1.7 4.3 0.00 0.36 0.00 85 1021.0
20260503071327 60 207 1.7 4.3 0.00 0.36 0.00 86 1021.0
20260503070824 60 255 1.7 3.5 0.00 0.36 0.00 86 1021.0
20260503060322 58 279 0.9 2.6 0.00 0.39 0.00 88 1020.7
20260503054813 58 321 0.9 2.6 0.00 0.44 0.00 88 1020.6
20260503054331 58 295 0.0 2.6 0.00 0.44 0.00 87 1020.6
20260503053827 59 271 0.9 2.6 0.00 0.44 0.00 87 1020.6
20260503053326 59 316 0.0 1.7 0.00 0.44 0.00 87 1020.5
20260503052822 59 312 0.0 1.7 0.00 0.44 0.00 87 1020.5
20260503052320 59 308 0.0 1.7 0.00 0.44 0.00 87 1020.4
20260503051818 59 317 0.0 4.3 0.00 0.44 0.00 86 1020.4
20260503051330 59 323 1.7 4.3 0.00 0.44 0.00 86 1020.5
20260503050827 59 328 0.9 4.3 0.00 0.44 0.00 86 1020.5
20260503050327 59 316 1.7 4.3 0.00 0.44 0.00 86 1020.5
20260503045823 59 289 1.7 4.3 0.00 0.44 0.00 86 1020.5
20260503045322 59 346 1.7 4.3 0.00 0.44 0.00 86 1020.5
20260503044819 59 302 0.9 5.2 0.00 0.44 0.00 86 1020.5
20260503044313 59 301 2.6 5.2 0.00 0.44 0.00 86 1020.6
20260503043851 59 328 1.7 5.2 0.00 0.44 0.00 86 1020.5
20260503043330 59 345 1.7 4.3 0.00 0.44 0.00 86 1020.5
20260503042827 59 290 0.9 6.1 0.00 0.44 0.00 86 1020.4
20260503042326 59 327 1.7 6.1 0.00 0.44 0.00 87 1020.4
20260503041823 59 252 0.9 5.2 0.00 0.44 0.00 87 1020.3
20260503041344 59 316 1.7 5.2 0.00 0.44 0.00 87 1020.4
20260503040820 59 338 1.7 4.3 0.00 0.44 0.00 87 1020.4
20260503040317 59 330 1.7 5.2 0.00 0.44 0.00 87 1020.5
20260503035814 59 305 0.9 4.3 0.00 0.44 0.00 87 1020.5
20260503035313 59 300 1.7 3.5 0.00 0.44 0.00 87 1020.5
20260503034832 59 336 0.9 5.2 0.00 0.44 0.00 87 1020.5
20260503034327 59 349 0.9 5.2 0.00 0.44 0.00 87 1020.5
20260503033821 59 297 1.7 5.2 0.00 0.44 0.00 88 1020.5
20260503033320 59 330 0.9 4.3 0.00 0.44 0.00 88 1020.6
20260503032816 59 33 0.9 4.3 0.00 0.44 0.00 88 1020.7
20260503032335 59 337 0.9 4.3 0.00 0.44 0.00 88 1020.7
20260503031828 59 4 1.7 4.3 0.00 0.44 0.00 88 1020.8
20260503031324 59 328 0.0 3.5 0.00 0.44 0.00 88 1020.7
20260503030822 59 348 0.9 4.3 0.00 0.44 0.00 88 1020.8
20260503030340 59 349 1.7 4.3 0.00 0.44 0.00 88 1020.7
20260503025837 59 328 0.9 3.5 0.00 0.44 0.00 88 1020.8
20260503025313 59 305 0.9 4.3 0.00 0.44 0.00 88 1020.8
20260503024830 59 313 0.9 4.3 0.00 0.44 0.00 88 1020.8